EW5303 Weather Reports


time (UTC)temp
C
wind
direction
speed
KPH
gust
KPH
rain 1hr
cm
rain 24hr
cm
rain mn
cm
humidity
%
barometer
mb
20260506044505 18 166 0.0 6.4 0.00 0.00 0.00 73 1012.2
20260506043005 18 102 0.0 8.0 0.00 0.00 0.00 73 1012.2
20260506041505 17 112 0.0 8.0 0.00 0.00 0.00 72 1012.1
20260506034505 17 0 0.0 0.0 0.00 0.00 0.00 70 1011.9
20260506033005 18 0 0.0 0.0 0.00 0.00 0.00 67 1012.0
20260506031504 18 0 0.0 0.0 0.00 0.00 0.00 65 1012.2
20260506030005 19 103 0.0 3.2 0.00 0.00 0.00 64 1012.1
20260506024505 20 254 0.0 3.2 0.00 0.00 0.00 63 1012.2
20260506023004 20 223 0.0 3.2 0.00 0.00 0.00 61 1012.1
20260506021504 20 259 0.0 3.2 0.00 0.00 0.00 61 1012.0
20260506020005 20 239 0.0 6.4 0.00 0.00 0.00 60 1011.9
20260506014505 20 17 0.0 6.4 0.00 0.00 0.00 60 1011.9
20260506013005 20 135 0.0 3.2 0.00 0.00 0.00 61 1011.5
20260506011505 20 103 0.0 6.4 0.00 0.00 0.00 60 1011.4
20260506010005 20 83 0.0 3.2 0.00 0.00 0.00 59 1011.2
20260506004509 21 83 0.0 3.2 0.00 0.00 0.00 57 1011.0
20260506003025 22 0 0.0 0.0 0.00 0.00 0.00 54 1010.7
20260506001504 22 94 0.0 3.2 0.00 0.00 0.00 51 1010.8
20260506000004 23 262 0.0 3.2 0.00 0.00 0.00 50 1010.7
20260505234504 24 146 0.0 8.0 0.00 0.00 0.00 49 1010.5
20260505233004 25 35 0.0 11.3 0.00 0.00 0.00 47 1010.4
20260505231504 25 91 0.0 8.0 0.00 0.00 0.00 46 1010.5
20260505230007 26 231 3.2 11.3 0.00 0.00 0.00 44 1010.5
20260505224525 27 155 0.0 11.3 0.00 0.00 0.00 42 1010.6
20260505223025 27 269 0.0 11.3 0.00 0.00 0.00 42 1010.6
20260505221527 27 225 6.4 16.1 0.00 0.00 0.00 41 1010.8
20260505220004 27 183 3.2 16.1 0.00 0.00 0.00 41 1010.9
20260505214504 27 231 3.2 8.0 0.00 0.00 0.00 40 1010.8
20260505213004 27 194 3.2 14.5 0.00 0.00 0.00 39 1010.9
20260505211504 27 166 6.4 16.1 0.00 0.00 0.00 37 1010.8
20260505210004 28 194 6.4 19.3 0.00 0.00 0.00 35 1010.8
20260505204504 28 235 6.4 16.1 0.00 0.00 0.00 34 1010.8
20260505203004 28 259 6.4 19.3 0.00 0.00 0.00 34 1011.0
20260505201504 28 202 6.4 29.0 0.00 0.00 0.00 35 1011.2
20260505200004 27 210 6.4 29.0 0.00 0.00 0.00 35 1011.4
20260505194503 28 216 3.2 19.3 0.00 0.00 0.00 38 1011.4
20260505193004 27 191 3.2 14.5 0.00 0.00 0.00 40 1011.6
20260505191503 28 221 3.2 16.1 0.00 0.00 0.00 36 1011.8
20260505190004 29 265 3.2 16.1 0.00 0.00 0.00 33 1011.9
20260505184503 28 225 6.4 19.3 0.00 0.00 0.00 38 1012.2
20260505183025 29 146 6.4 22.5 0.00 0.00 0.00 35 1012.2
20260505181503 29 154 6.4 19.3 0.00 0.00 0.00 35 1012.6
20260505180004 29 269 6.4 16.1 0.00 0.00 0.00 35 1012.8
20260505174503 29 244 3.2 16.1 0.00 0.00 0.00 37 1013.1
20260505173024 28 181 3.2 11.3 0.00 0.00 0.00 37 1013.3
20260505171503 28 155 3.2 16.1 0.00 0.00 0.00 42 1013.4
20260505170024 27 278 6.4 25.7 0.00 0.00 0.00 42 1013.4
20260505164503 27 283 6.4 19.3 0.00 0.00 0.00 42 1013.6
20260505163003 27 148 3.2 8.0 0.00 0.00 0.00 44 1013.8
20260505161503 27 263 3.2 22.5 0.00 0.00 0.00 45 1014.0
20260505153006 25 140 3.2 8.0 0.00 0.00 0.00 49 1014.3
20260505151506 25 87 3.2 8.0 0.00 0.00 0.00 52 1014.3
20260505124506 17 261 0.0 8.0 0.00 0.00 0.00 71 1014.5
20260505123027 16 72 0.0 8.0 0.00 0.00 0.00 74 1014.5
20260505121506 15 73 0.0 11.3 0.00 0.00 0.00 76 1014.2
20260505120006 14 68 0.0 3.2 0.00 0.00 0.00 80 1014.1
20260505114506 13 203 0.0 3.2 0.00 0.00 0.00 81 1014.0
20260505113027 13 129 0.0 3.2 0.00 0.00 0.00 82 1013.9
20260505111506 12 100 0.0 3.2 0.00 0.00 0.00 85 1013.8
20260505101506 11 0 0.0 0.0 0.00 0.00 0.00 83 1013.6
20260505100027 12 69 0.0 3.2 0.00 0.00 0.00 83 1013.4
20260505094527 12 0 0.0 0.0 0.00 0.00 0.00 83 1013.4
20260505093005 11 0 0.0 0.0 0.00 0.00 0.00 83 1013.4
20260505091506 11 0 0.0 0.0 0.00 0.00 0.00 82 1013.3
20260505090006 11 0 0.0 0.0 0.00 0.00 0.00 82 1013.3
20260505084506 12 69 0.0 3.2 0.00 0.00 0.00 81 1013.1
20260505083006 12 0 0.0 0.0 0.00 0.00 0.00 79 1013.0
20260505081505 12 0 0.0 0.0 0.00 0.00 0.00 77 1012.8
20260505080006 12 0 0.0 0.0 0.00 0.00 0.00 76 1012.8
20260505074526 13 0 0.0 0.0 0.00 0.00 0.00 75 1012.7
20260505073005 13 0 0.0 0.0 0.00 0.00 0.00 73 1012.6
20260505071505 13 73 0.0 3.2 0.00 0.00 0.00 74 1012.6
20260505070005 12 0 0.0 0.0 0.00 0.00 0.00 75 1012.4
20260505064526 12 0 0.0 0.0 0.00 0.00 0.00 75 1012.3
20260505063005 12 0 0.0 0.0 0.00 0.00 0.00 75 1012.2
20260505061526 13 0 0.0 0.0 0.00 0.00 0.00 73 1012.3
20260505060026 13 0 0.0 0.0 0.00 0.00 0.00 72 1012.4